GSAT-11

Last updated on Tue Sep 22 2026 00:03:14 GMT+0000 (Coordinated Universal Time)

1 43824U 18100B 26264.50371741 -.00000081 00000+0 00000+0 0 9997 2 43824 0.0608 268.7461 0006489 211.8677 135.1159 1.00272241 28442
UTC large
Height (km)
Speed (km/s)
/
Latitude / Longitude
Inclination (degrees)
Orbital Period (minutes)
Azimuth
Elevation
Range (km)
Doppler Factor

Next 0 passes for location: London (51.5072 / 0.1276)

No passes found over London.
GSAT-11